Regional Weather Roundup
Issued by NWS

Home | Current Version | Previous Version | Graphics & Text | Print | Product List | Glossary On
Versions: 1 2 3 4 5 6 7 8 9 10 11 12 13 14 15 16 17 18 19 20 21 22 23 24 25 26 27 28 29 30 31 32 33 34 35 36 37 38 39 40 41 42 43 44 45 46 47 48 49 50
000
ASUS43 KBIS 241310
RWRND

NORTH DAKOTA REGIONAL WEATHER ROUNDUP
NATIONAL WEATHER SERVICE BISMARCK ND
700 AM CST SAT FEB 24 2018

NOTE: "FAIR" INDICATES FEW OR NO CLOUDS BELOW 12,000 FEET WITH NO
SIGNIFICANT WEATHER AND/OR OBSTRUCTIONS TO VISIBILITY.


NDZ001>003-009>011-017-241400-
NORTHWEST NORTH DAKOTA

CITY           SKY/WX    TMP DP  RH WIND       PRES   REMARKS
WILLISTON      CLEAR     -6 -11  79 SW3       29.79F
MINOT          CLOUDY     8  -1  66 S10       29.81F WCI  -6
MINOT AFB      CLOUDY     7  -1  68 S8          N/A  WCI  -5
$$

NDZ018>021-031>035-040>046-241400-
SOUTHWEST NORTH DAKOTA

CITY           SKY/WX    TMP DP  RH WIND       PRES   REMARKS
BISMARCK       CLEAR      1  -3  83 E5        29.91F WCI  -9
DICKINSON      CLOUDY     9   3  77 SW9       29.75F WCI  -4
GARRISON         N/A      0  -4  83 S6        29.84F WCI -12
HETTINGER ARPT CLOUDY     8   2  76 S8        29.80S WCI  -4
$$

NDZ004>008-012>016-024-026-027-054-241400-
NORTHEAST NORTH DAKOTA

CITY           SKY/WX    TMP DP  RH WIND       PRES   REMARKS
GRAND FORKS    FAIR      -3  -6  87 S7        30.02F WCI -16
GRND FRKS AFB  FAIR       0  -6  78 S6        30.00F WCI -12
DEVILS LAKE    FAIR       0  -5  79 SE10      29.91F WCI -16
$$

NDZ022-023-025-028>030-036>039-047>053-241400-
SOUTHEAST NORTH DAKOTA

CITY           SKY/WX    TMP DP  RH WIND       PRES   REMARKS
FARGO          MOCLDY    -1  -3  91 S13       30.10F FOG     WCI -19
JAMESTOWN      CLOUDY    -4  -7  87 SE12      29.96F WCI -22
$$





USA.gov is the U.S. government's official web portal to all federal, state and local government web resources and services.